"startDT [UTC]","vpos","CH4 [ppm]","stdev(CH4) [ppm]","CO2 [ppm]","stdev(CO2) [ppm]","H2O [ppm]","stdev(H2O)","p_LGR [torr]","T_LGR [C]","mt1_LGR [us]","mt2_LGR [us]","T_ECpre [C]","T_EC1 [C]","T_EC2 [C]","p_inlet [hPa]","p_in [hPa]","p_out [hPa]","T_inlet [C]","RH_inlet [%]","dwpt_inlet [C]","T_vent [C]","RH_vent [%]","dwpt_vent [C]","flow_vent [l min-1]","flow_inlet [l min-1]","dwpt_sample [C]","T_room [C]"
2013-03-14 00:00:00,0.0,1.9253,0.0008,405.06,0.43,10.5,17.0,138.05,30.59,24.65,36.42,0.04,-272.75,-272.75,-49,564,-931,24.6,1.6,-30.3,24.6,1.7,-29.8,5.73,2.33,-27.5,29.9
2013-03-14 00:01:00,0.0,1.9249,0.0010,405.12,0.42,15.2,21.9,138.05,30.60,24.66,36.42,0.04,-272.75,-272.75,-49,564,-931,24.6,1.6,-30.2,24.7,1.7,-29.6,5.73,2.29,-27.5,29.8
2013-03-14 00:02:00,0.0,1.9259,0.0010,405.08,0.43,9.5,15.7,138.05,30.60,24.65,36.42,0.04,-272.75,-272.75,-49,564,-931,24.6,1.7,-29.9,24.7,1.7,-29.5,5.73,2.36,-27.5,29.8
2013-03-14 00:03:00,0.0,1.9262,0.0008,405.25,0.46,11.9,17.7,138.05,30.60,24.65,36.42,0.04,-272.76,-272.75,-49,564,-931,24.6,1.7,-29.7,24.7,1.7,-29.4,5.73,2.40,-27.5,29.8
2013-03-14 00:04:00,0.0,1.9252,0.0008,404.99,0.47,16.2,19.4,138.05,30.61,24.66,36.43,0.04,-272.75,-272.75,-49,565,-931,24.6,1.7,-29.8,24.7,1.7,-29.4,5.73,2.33,-27.5,29.8
2013-03-14 00:05:00,0.0,1.9252,0.0011,405.18,0.46,10.2,17.2,138.05,30.61,24.66,36.42,0.04,-272.75,-272.75,-49,564,-932,24.6,1.7,-29.9,24.7,1.7,-29.3,5.73,2.29,-27.5,29.8
2013-03-14 00:06:00,0.0,1.9254,0.0009,405.05,0.49,14.6,21.0,138.05,30.61,24.65,36.43,0.04,-272.75,-272.75,-49,565,-932,24.6,1.7,-29.6,24.7,1.8,-29.2,5.73,2.38,-27.5,29.8
2013-03-14 00:07:00,0.0,1.9248,0.0009,405.04,0.45,17.4,22.6,138.05,30.62,24.65,36.43,0.04,-272.75,-272.76,-49,565,-932,24.6,1.7,-29.6,24.7,1.8,-29.1,5.73,2.39,-27.5,29.8
2013-03-14 00:08:00,0.0,1.9249,0.0010,405.13,0.34,11.3,21.0,138.05,30.62,24.66,36.42,0.04,-272.75,-272.76,-49,565,-931,24.6,1.7,-29.4,24.7,1.8,-28.9,5.73,2.32,-27.5,29.8
2013-03-14 00:09:00,0.0,1.9250,0.0010,405.09,0.39,18.5,22.1,138.05,30.63,24.65,36.42,0.04,-272.75,-272.75,-49,565,-931,24.6,1.8,-29.2,24.7,1.8,-28.8,5.73,2.30,-27.5,29.8
2013-03-14 00:10:00,0.0,1.9247,0.0009,405.06,0.45,12.7,19.4,138.05,30.63,24.66,36.43,0.04,-272.76,-272.75,-49,565,-931,24.6,1.8,-29.2,24.7,1.8,-28.8,5.73,2.39,-27.5,29.9
2013-03-14 00:11:00,0.0,1.9251,0.0008,405.04,0.44,11.9,18.6,138.05,30.63,24.66,36.43,0.04,-272.75,-272.76,-49,565,-931,24.6,1.8,-29.2,24.7,1.8,-28.7,5.73,2.39,-27.5,29.8
"startDT [UTC]","vpos","CH4 [ppm]","stdev(CH4) [ppm]","CO2 [ppm]","stdev(CO2) [ppm]","H2O [ppm]","stdev(H2O)","p_LGR [torr]","T_LGR [C]","mt1_LGR [us]","mt2_LGR [us]","T_ECpre [C]","T_EC1 [C]","T_EC2 [C]","p_inlet [hPa]","p_in [hPa]","p_out [hPa]","T_inlet [C]","RH_inlet [%]","dwpt_inlet [C]","T_vent [C]","RH_vent [%]","dwpt_vent [C]","flow_vent [l min-1]","flow_inlet [l min-1]","dwpt_sample [C]","T_room [C]"
2013-03-14 00:15:00,0.0,1.9254,0.0009,405.21,0.41,10.8,18.5,138.05,30.64,24.66,36.41,0.04,-272.76,-272.75,-49,565,-931,24.5,1.8,-28.9,24.6,1.9,-28.6,5.73,2.38,-27.6,29.7
2013-03-14 00:16:00,0.0,1.9253,0.0008,405.12,0.38,8.6,14.9,138.05,30.65,24.66,36.42,0.04,-272.75,-272.76,-49,564,-931,24.6,1.8,-28.9,24.6,1.9,-28.5,5.73,2.31,-27.6,29.8
2013-03-14 00:17:00,0.0,1.9256,0.0008,405.11,0.46,10.0,18.6,138.05,30.65,24.65,36.42,0.04,-272.75,-272.75,-49,564,-931,24.5,1.8,-28.8,24.6,1.9,-28.6,5.73,2.32,-27.6,29.8
2013-03-14 00:18:00,0.0,1.9259,0.0012,405.20,0.42,10.5,17.8,138.05,30.65,24.65,36.42,0.04,-272.75,-272.75,-49,564,-931,24.5,1.8,-29.0,24.6,1.9,-28.5,5.73,2.39,-27.6,29.8
2013-03-14 00:19:00,0.0,1.9256,0.0009,405.08,0.43,13.6,21.2,138.05,30.65,24.66,36.43,0.04,-272.75,-272.75,-49,564,-931,24.5,1.8,-29.0,24.6,1.9,-28.5,5.73,2.38,-27.6,29.8
2013-03-14 00:20:00,0.0,1.9257,0.0010,405.07,0.37,11.5,19.3,138.05,30.65,24.66,36.43,0.04,-272.75,-272.75,-49,564,-931,24.5,1.8,-28.9,24.6,1.9,-28.6,5.73,2.30,-27.6,29.8
2013-03-14 00:21:00,0.0,1.9254,0.0009,405.08,0.43,10.4,16.1,138.05,30.65,24.66,36.42,0.04,-272.75,-272.75,-49,564,-931,24.5,1.8,-28.9,24.6,1.9,-28.3,5.73,2.32,-27.6,29.8
2013-03-14 00:22:00,0.0,1.9255,0.0008,405.06,0.40,9.3,14.7,138.05,30.65,24.66,36.42,0.04,-272.75,-272.75,-49,564,-931,24.5,1.8,-28.8,24.6,1.9,-28.4,5.73,2.39,-27.6,29.8
2013-03-14 00:23:00,0.0,1.9254,0.0010,405.12,0.44,12.3,18.0,138.05,30.66,24.66,36.42,0.04,-272.75,-272.75,-49,564,-932,24.6,1.8,-28.9,24.6,1.9,-28.4,5.73,2.38,-27.6,29.8
2013-03-14 00:24:00,0.0,1.9254,0.0008,405.13,0.41,15.9,21.3,138.05,30.66,24.66,36.43,0.04,-272.75,-272.75,-49,564,-932,24.6,1.9,-28.7,24.6,1.8,-28.7,5.73,2.30,-27.5,29.8
2013-03-14 00:25:00,0.0,1.9250,0.0009,405.23,0.39,16.8,19.5,138.05,30.66,24.66,36.42,0.04,-272.75,-272.75,-49,564,-932,24.6,1.8,-28.9,24.6,1.9,-28.5,5.73,2.31,-27.5,29.8
2013-03-14 00:26:00,0.0,1.9255,0.0009,405.15,0.40,12.2,15.2,138.05,30.67,24.65,36.42,0.04,-272.75,-272.75,-49,564,-932,24.6,1.8,-28.9,24.6,1.8,-28.7,5.73,2.40,-27.5,29.8
2013-03-14 00:27:00,0.0,1.9252,0.0008,405.11,0.44,15.0,17.9,138.05,30.67,24.66,36.42,0.04,-272.75,-272.76,-49,564,-931,24.6,1.8,-28.9,24.7,1.9,-28.5,5.73,2.37,-27.6,29.8
2013-03-14 00:28:00,0.0,1.9251,0.0009,405.16,0.43,10.8,14.8,138.05,30.68,24.66,36.42,0.04,-272.76,-272.75,-49,564,-931,24.6,1.8,-28.8,24.7,1.9,-28.5,5.73,2.30,-27.5,29.8
2013-03-14 00:29:00,0.0,1.9253,0.0009,405.11,0.40,14.6,20.3,138.05,30.68,24.66,36.42,0.04,-272.75,-272.75,-49,564,-931,24.6,1.8,-29.0,24.7,1.9,-28.6,5.73,2.33,-27.5,29.8
2013-03-14 00:30:00,0.0,1.9255,0.0009,405.10,0.49,11.1,16.8,138.05,30.68,24.66,36.42,0.04,-272.75,-272.75,-49,564,-931,24.6,1.9,-28.7,24.7,1.9,-28.6,5.73,2.41,-27.5,29.9
2013-03-14 00:31:00,0.0,1.9255,0.0009,405.25,0.37,10.5,17.3,138.05,30.68,24.65,36.41,0.04,-272.75,-272.75,-49,564,-931,24.6,1.9,-28.7,24.7,1.9,-28.6,5.73,2.36,-27.5,29.8
2013-03-14 00:32:00,0.0,1.9254,0.0011,405.08,0.35,10.1,14.9,138.05,30.69,24.66,36.43,0.04,-272.75,-272.75,-49,564,-931,24.5,1.8,-28.8,24.6,1.9,-28.3,5.73,2.29,-27.5,29.9
2013-03-14 00:33:00,0.0,1.9252,0.0010,405.26,0.47,14.8,20.4,138.05,30.69,24.66,36.41,0.04,-272.75,-272.75,-49,564,-931,24.6,1.8,-28.8,24.7,1.9,-28.4,5.73,2.35,-27.5,29.9
2013-03-14 00:34:00,0.0,1.9254,0.0010,405.14,0.40,18.2,19.5,138.05,30.69,24.65,36.42,0.04,-272.76,-272.75,-49,565,-932,24.6,1.8,-28.7,24.7,1.9,-28.3,5.73,2.41,-27.5,29.9
2013-03-14 00:35:00,0.0,1.9249,0.0009,405.02,0.36,12.2,14.9,138.05,30.70,24.65,36.42,0.04,-272.75,-272.75,-49,565,-932,24.6,1.9,-28.5,24.7,1.9,-28.2,5.73,2.34,-27.5,29.8
2013-03-14 00:36:00,0.0,1.9253,0.0010,405.19,0.41,16.4,19.8,138.05,30.70,24.66,36.42,0.04,-272.75,-272.75,-49,565,-932,24.6,1.9,-28.5,24.7,1.9,-28.3,5.73,2.30,-27.4,29.9
2013-03-14 00:37:00,0.0,1.9251,0.0010,405.11,0.38,16.2,20.4,138.05,30.71,24.65,36.42,0.04,-272.75,-272.76,-49,565,-932,24.6,1.9,-28.6,24.6,2.0,-28.1,5.73,2.37,-27.5,29.9
2013-03-14 00:38:00,0.0,1.9250,0.0008,405.19,0.41,19.8,22.4,138.05,30.71,24.66,36.41,0.04,-272.75,-272.75,-49,565,-932,24.6,1.9,-28.3,24.7,2.0,-28.0,5.73,2.41,-27.4,29.9
2013-03-14 00:39:00,0.0,1.9254,0.0009,405.18,0.41,16.9,20.7,138.05,30.71,24.66,36.42,0.04,-272.75,-272.75,-49,565,-932,24.6,1.9,-28.4,24.7,2.0,-27.9,5.73,2.31,-27.4,29.9
"startDT [UTC]","vpos","CH4 [ppm]","stdev(CH4) [ppm]","CO2 [ppm]","stdev(CO2) [ppm]","H2O [ppm]","stdev(H2O)","p_LGR [torr]","T_LGR [C]","mt1_LGR [us]","mt2_LGR [us]","T_ECpre [C]","T_EC1 [C]","T_EC2 [C]","p_inlet [hPa]","p_in [hPa]","p_out [hPa]","T_inlet [C]","RH_inlet [%]","dwpt_inlet [C]","T_vent [C]","RH_vent [%]","dwpt_vent [C]","flow_vent [l min-1]","flow_inlet [l min-1]","dwpt_sample [C]","T_room [C]"
2013-03-14 00:43:00,0.0,1.9257,0.0010,405.21,0.42,18.8,22.5,138.05,30.73,24.65,36.42,0.04,-272.75,-272.75,-49,565,-931,24.6,2.0,-28.1,24.6,2.0,-27.6,5.73,2.31,-27.5,29.9
2013-03-14 00:44:00,0.0,1.9256,0.0009,405.16,0.41,11.3,16.5,138.05,30.73,24.66,36.42,0.04,-272.75,-272.75,-49,565,-931,24.6,2.0,-28.1,24.6,2.1,-27.6,5.73,2.30,-27.5,29.8
2013-03-14 00:45:00,0.0,1.9253,0.0009,405.22,0.40,20.9,20.0,138.05,30.73,24.66,36.41,0.28,-270.73,-272.61,-49,565,-931,24.6,2.0,-27.9,24.6,2.1,-27.6,5.42,2.41,-31.6,29.8
2013-03-14 00:46:00,0.0,1.9254,0.0007,405.20,0.41,12.9,20.0,138.05,30.73,24.65,36.42,0.04,-272.75,-272.75,-49,564,-931,24.6,2.0,-27.7,24.7,2.1,-27.5,5.73,2.39,-27.4,29.9
2013-03-14 00:47:00,0.0,1.9257,0.0009,405.26,0.43,14.9,19.7,138.05,30.74,24.65,36.41,0.04,-272.75,-272.75,-49,564,-931,24.5,2.0,-27.9,24.7,2.1,-27.5,5.73,2.31,-27.4,29.9
2013-03-14 00:48:00,0.0,1.9256,0.0008,405.24,0.44,16.4,24.7,138.05,30.74,24.65,36.41,0.04,-272.75,-272.75,-49,564,-931,24.6,2.0,-27.9,24.7,2.0,-27.7,5.73,2.31,-27.4,29.9
2013-03-14 00:49:00,0.0,1.9258,0.0009,405.10,0.52,19.7,20.4,138.05,30.74,24.65,36.41,0.04,-272.75,-272.75,-49,565,-931,24.6,2.0,-27.9,24.7,2.0,-27.6,5.73,2.39,-27.4,29.9
2013-03-14 00:50:00,0.0,1.9253,0.0010,405.03,0.43,17.0,19.3,138.05,30.75,24.66,36.42,0.04,-272.75,-272.75,-49,565,-931,24.6,2.0,-28.1,24.7,2.0,-27.7,5.73,2.38,-27.4,29.9
2013-03-14 00:51:00,0.0,1.9253,0.0009,405.07,0.41,18.7,21.9,138.05,30.76,24.66,36.42,0.04,-272.75,-272.76,-49,564,-932,24.6,2.0,-27.9,24.7,2.0,-27.7,5.73,2.31,-27.4,29.9
2013-03-14 00:52:00,0.0,1.9253,0.0008,405.15,0.38,24.3,24.8,138.05,30.76,24.66,36.42,0.04,-272.75,-272.75,-49,565,-932,24.6,2.0,-28.1,24.7,2.0,-27.7,5.73,2.32,-27.3,29.9
2013-03-14 00:53:00,0.0,1.9259,0.0009,405.20,0.46,25.0,24.7,138.05,30.77,24.65,36.42,0.04,-272.75,-272.75,-49,565,-932,24.6,2.0,-28.1,24.7,2.0,-27.7,5.73,2.40,-27.3,29.9
2013-03-14 00:54:00,0.0,1.9257,0.0009,405.09,0.41,25.7,23.7,138.05,30.77,24.65,36.41,0.04,-272.75,-272.75,-49,565,-932,24.6,2.0,-27.8,24.7,2.0,-27.6,5.73,2.37,-27.3,29.9
2013-03-14 00:55:00,0.0,1.9251,0.0010,405.05,0.34,27.3,25.7,138.04,30.77,24.65,36.42,0.04,-272.75,-272.75,-49,565,-932,24.6,2.0,-27.9,24.7,2.0,-27.6,5.73,2.30,-27.3,29.9
2013-03-14 00:56:00,0.0,1.9254,0.0009,405.10,0.38,21.1,21.7,138.04,30.78,24.66,36.42,0.04,-272.75,-272.75,-49,565,-932,24.6,2.0,-28.0,24.7,2.0,-27.6,5.73,2.33,-27.3,29.9
2013-03-14 00:57:00,0.0,1.9255,0.0010,405.19,0.39,16.1,17.4,138.04,30.79,24.66,36.42,0.04,-272.75,-272.75,-49,565,-931,24.6,1.9,-28.1,24.7,2.0,-27.7,5.73,2.40,-27.3,29.9
2013-03-14 00:58:00,0.0,1.9256,0.0009,405.19,0.33,26.2,25.1,138.04,30.79,24.65,36.42,0.04,-272.75,-272.75,-49,565,-931,24.6,2.0,-28.1,24.7,2.0,-27.5,5.73,2.36,-27.3,29.9
2013-03-14 00:59:00,0.0,1.9254,0.0011,405.17,0.38,23.2,27.4,138.04,30.79,24.66,36.41,0.04,-272.75,-272.75,-49,565,-931,24.6,1.9,-28.1,24.7,2.0,-27.6,5.73,2.29,-27.2,29.9
2013-03-14 01:00:00,0.0,1.9256,0.0009,405.15,0.35,18.1,22.2,138.04,30.80,24.65,36.41,0.04,-272.76,-272.75,-49,565,-931,24.6,2.0,-28.0,24.7,2.0,-27.7,5.73,2.35,-27.2,30.0
2013-03-14 01:01:00,0.0,1.9256,0.0009,405.12,0.41,25.5,25.5,138.04,30.80,24.65,36.42,0.04,-272.75,-272.75,-49,565,-932,24.7,1.9,-28.1,24.8,2.0,-27.5,5.73,2.41,-27.2,30.0
2013-03-14 01:02:00,0.0,1.9254,0.0009,405.17,0.41,25.7,25.3,138.04,30.80,24.66,36.41,0.04,-272.76,-272.76,-49,565,-932,24.7,2.0,-27.8,24.8,2.1,-27.3,5.73,2.34,-27.2,30.0
2013-03-14 01:03:00,0.0,1.9255,0.0009,405.19,0.36,18.3,24.2,138.04,30.81,24.66,36.42,0.04,-272.75,-272.75,-49,565,-932,24.7,2.0,-27.8,24.8,2.1,-27.3,5.73,2.29,-27.2,30.0
2013-03-14 01:04:00,0.0,1.9256,0.0009,405.21,0.34,23.7,23.9,138.05,30.81,24.65,36.42,0.04,-272.75,-272.75,-49,565,-932,24.7,2.0,-27.6,24.7,2.1,-27.3,5.73,2.37,-27.2,30.0
2013-03-14 01:05:00,0.0,1.9250,0.0010,405.13,0.38,25.1,23.3,138.04,30.82,24.66,36.42,0.04,-272.75,-272.75,-49,565,-932,24.7,2.0,-27.6,24.8,2.1,-27.2,5.73,2.39,-27.2,30.0
2013-03-14 01:06:00,0.0,1.9256,0.0009,405.21,0.41,36.6,24.1,138.04,30.82,24.66,36.42,0.04,-272.75,-272.75,-49,565,-931,24.7,2.1,-27.4,24.8,2.1,-27.0,5.73,2.31,-27.1,30.0
2013-03-14 01:07:00,0.0,1.9258,0.0010,405.27,0.35,24.9,26.0,138.04,30.83,24.65,36.41,0.04,-272.75,-272.75,-49,565,-931,24.7,2.1,-27.3,24.8,2.2,-26.8,5.73,2.31,-27.1,30.0
2013-03-14 01:08:00,0.0,1.9254,0.0010,405.22,0.40,33.4,28.2,138.04,30.83,24.66,36.41,0.04,-272.75,-272.75,-49,565,-931,24.7,2.1,-27.3,24.8,2.2,-26.8,5.73,2.40,-27.1,30.1
2013-03-14 01:09:00,0.0,1.9256,0.0011,405.22,0.40,27.2,26.3,138.04,30.84,24.65,36.42,0.04,-272.75,-272.75,-49,565,-932,24.7,2.2,-27.0,24.8,2.2,-26.7,5.73,2.37,-27.1,30.0
2013-03-14 01:10:00,0.0,1.9256,0.0010,405.29,0.40,26.5,23.3,138.04,30.84,24.66,36.41,0.04,-272.75,-272.75,-49,565,-932,24.7,2.2,-26.9,24.8,2.2,-26.7,5.73,2.29,-27.1,30.1
2013-03-14 01:11:00,0.0,1.9257,0.0009,405.19,0.36,27.3,25.3,138.04,30.85,24.65,36.42,0.04,-272.75,-272.75,-49,565,-932,24.7,2.2,-26.8,24.8,2.3,-26.4,5.73,2.34,-27.1,30.1
2013-03-14 01:12:00,0.0,1.9256,0.0010,405.23,0.41,24.0,20.8,138.04,30.85,24.65,36.42,0.04,-272.75,-272.75,-49,565,-932,24.8,2.2,-26.7,24.8,2.3,-26.3,5.73,2.40,-27.1,30.1
2013-03-14 01:13:00,0.0,1.9256,0.0009,405.29,0.41,27.6,25.5,138.04,30.86,24.66,36.41,0.04,-272.75,-272.75,-49,565,-932,24.8,2.2,-26.7,24.8,2.3,-26.2,5.73,2.33,-27.0,30.1
2013-03-14 01:14:00,0.0,1.9256,0.0010,405.23,0.42,29.8,24.4,138.04,30.86,24.66,36.42,0.04,-272.75,-272.75,-49,565,-932,24.7,2.2,-26.8,24.9,2.3,-26.2,5.73,2.29,-27.0,30.1
2013-03-14 01:15:00,0.0,1.9257,0.0010,405.26,0.41,33.8,29.4,138.04,30.86,24.65,36.42,0.04,-272.75,-272.75,-49,565,-932,24.8,2.2,-26.6,24.8,2.3,-26.4,5.73,2.38,-27.0,30.1
2013-03-14 01:16:00,0.0,1.9255,0.0009,405.24,0.42,26.7,24.9,138.04,30.87,24.65,36.42,0.04,-272.75,-272.75,-49,565,-932,24.8,2.2,-26.6,24.9,2.3,-26.3,5.73,2.39,-27.0,30.1
2013-03-14 01:17:00,0.0,1.9256,0.0010,405.28,0.35,28.3,22.6,138.04,30.87,24.66,36.42,0.04,-272.75,-272.75,-49,565,-931,24.8,2.2,-26.6,24.9,2.3,-26.2,5.73,2.30,-27.0,30.1
2013-03-14 01:18:00,0.0,1.9257,0.0010,405.38,0.39,35.4,29.2,138.04,30.87,24.66,36.41,0.04,-272.75,-272.75,-49,565,-932,24.8,2.2,-26.5,24.9,2.3,-26.2,5.73,2.33,-27.0,30.1
2013-03-14 01:19:00,0.0,1.9257,0.0008,405.29,0.39,31.7,25.6,138.04,30.88,24.65,36.41,0.04,-272.75,-272.76,-49,565,-932,24.8,2.2,-26.5,24.9,2.3,-26.1,5.73,2.40,-27.0,30.1
2013-03-14 01:20:00,0.0,1.9259,0.0009,405.34,0.39,32.0,27.2,138.04,30.88,24.66,36.41,0.04,-272.75,-272.75,-49,565,-932,24.8,2.2,-26.5,24.9,2.3,-26.1,5.73,2.34,-26.9,30.1
2013-03-14 01:21:00,0.0,1.9257,0.0009,405.24,0.44,33.6,24.4,138.04,30.89,24.66,36.41,0.04,-272.75,-272.76,-49,565,-933,24.8,2.3,-26.4,24.9,2.3,-26.1,5.73,2.29,-26.9,30.1
2013-03-14 01:22:00,1.0,1.8986,0.0187,388.74,11.58,29.1,26.0,138.04,30.89,24.66,36.42,0.04,-272.75,-272.75,-49,607,-932,24.9,2.3,-26.3,24.9,2.3,-25.9,5.73,2.37,-26.9,30.1
2013-03-14 01:23:00,1.0,1.8773,0.0009,375.54,0.43,25.3,23.5,138.04,30.90,24.66,36.43,0.04,-272.75,-272.76,-49,604,-932,24.9,2.3,-26.1,24.9,2.4,-25.8,5.73,2.39,-26.9,30.1
2013-03-14 01:24:00,1.0,1.8772,0.0008,375.50,0.43,30.5,28.4,138.04,30.90,24.66,36.43,0.04,-272.75,-272.75,-49,603,-932,24.9,2.3,-26.1,24.9,2.4,-25.7,5.73,2.30,-26.9,30.2
2013-03-14 01:25:00,1.0,1.8771,0.0010,375.49,0.39,27.4,20.8,138.04,30.90,24.66,36.43,0.04,-272.75,-272.76,-49,603,-932,24.9,2.3,-26.0,25.0,2.4,-25.6,5.73,2.31,-26.9,30.2
2013-03-14 01:26:00,1.0,1.8774,0.0010,375.38,0.45,34.2,26.1,138.04,30.91,24.65,36.44,0.04,-272.75,-272.75,-49,603,-932,24.9,2.3,-26.0,25.0,2.4,-25.6,5.73,2.40,-26.8,30.2
2013-03-14 01:27:00,1.0,1.8769,0.0009,375.58,0.40,33.3,21.4,138.04,30.91,24.66,36.42,0.04,-272.75,-272.75,-49,603,-932,24.9,2.4,-25.9,25.0,2.4,-25.5,5.73,2.36,-26.8,30.2
2013-03-14 01:28:00,1.0,1.8768,0.0009,375.53,0.39,35.2,24.9,138.04,30.92,24.66,36.42,0.04,-272.76,-272.75,-49,602,-932,25.0,2.4,-25.6,25.0,2.5,-25.3,5.73,2.28,-26.8,30.2
2013-03-14 01:29:00,4.0,1.8478,0.0192,382.87,5.01,33.8,24.9,138.04,30.93,24.66,36.43,0.04,-272.75,-272.75,-49,598,-932,25.0,2.4,-25.6,25.1,2.5,-25.2,5.73,2.36,-26.8,30.2
2013-03-14 01:30:00,4.0,1.8269,0.0010,388.53,0.41,40.9,27.7,138.04,30.93,24.66,36.42,0.04,-272.75,-272.75,-49,593,-932,25.0,2.4,-25.7,25.1,2.4,-25.4,5.73,2.40,-26.7,30.2
2013-03-14 01:31:00,4.0,1.8269,0.0009,388.62,0.39,40.1,27.4,138.04,30.93,24.66,36.42,0.04,-272.75,-272.75,-49,591,-932,25.0,2.4,-25.8,25.1,2.4,-25.4,5.73,2.29,-26.7,30.3
2013-03-14 01:32:00,4.0,1.8274,0.0009,388.70,0.45,44.2,31.6,138.04,30.94,24.65,36.42,0.04,-272.75,-272.75,-49,589,-933,25.1,2.4,-25.8,25.1,2.4,-25.5,5.73,2.31,-26.7,30.3
2013-03-14 01:33:00,4.0,1.8275,0.0008,388.63,0.36,46.9,33.6,138.04,30.95,24.65,36.42,0.04,-272.75,-272.75,-49,588,-933,25.1,2.3,-25.9,25.1,2.4,-25.5,5.73,2.40,-26.7,30.3
2013-03-14 01:34:00,4.0,1.8269,0.0009,388.68,0.45,40.9,31.6,138.04,30.95,24.66,36.42,0.04,-272.76,-272.76,-49,588,-933,25.1,2.3,-25.8,25.1,2.4,-25.6,5.73,2.33,-26.7,30.2
2013-03-14 01:35:00,4.0,1.8268,0.0008,388.64,0.41,41.2,25.7,138.04,30.96,24.66,36.42,0.04,-272.75,-272.75,-49,587,-933,25.1,2.3,-26.0,25.1,2.4,-25.7,5.73,2.29,-26.7,30.3
2013-03-14 01:36:00,5.0,1.7263,0.0650,365.59,14.87,44.1,32.1,138.04,30.97,24.66,36.43,0.04,-272.75,-272.75,-49,622,-932,25.1,2.3,-26.1,25.2,2.4,-25.7,5.73,2.36,-26.7,30.2
2013-03-14 01:37:00,5.0,1.6574,0.0009,349.83,0.40,36.4,27.3,138.04,30.97,24.66,36.44,0.04,-272.75,-272.75,-49,627,-932,25.2,2.3,-26.0,25.2,2.4,-25.7,5.73,2.38,-26.7,30.3
2013-03-14 01:38:00,5.0,1.6569,0.0009,349.83,0.31,30.5,29.1,138.04,30.98,24.66,36.44,0.04,-272.76,-272.75,-49,617,-932,25.2,2.3,-26.0,25.2,2.3,-25.7,5.73,2.29,-26.7,30.3
2013-03-14 01:39:00,5.0,1.6569,0.0008,349.86,0.38,34.8,27.1,138.04,30.99,24.66,36.44,0.04,-272.75,-272.75,-49,615,-932,25.2,2.3,-26.1,25.2,2.3,-25.8,5.73,2.33,-26.7,30.3
2013-03-14 01:40:00,5.0,1.6569,0.0007,349.83,0.34,36.9,27.4,138.04,30.99,24.66,36.44,0.04,-272.75,-272.75,-49,614,-932,25.2,2.3,-26.1,25.2,2.3,-25.8,5.73,2.40,-26.8,30.3
2013-03-14 01:41:00,5.0,1.6566,0.0009,349.81,0.41,30.7,26.7,138.04,30.99,24.66,36.44,0.04,-272.75,-272.75,-49,613,-932,25.3,2.2,-26.3,25.2,2.3,-25.9,5.73,2.32,-26.8,30.3
2013-03-14 01:42:00,5.0,1.6568,0.0007,349.78,0.41,33.7,29.7,138.04,31.00,24.66,36.44,0.04,-272.75,-272.75,-49,613,-932,25.3,2.2,-26.3,25.3,2.3,-26.0,5.73,2.29,-26.8,30.3
2013-03-14 01:43:00,2.0,1.7751,0.0743,376.56,16.86,37.1,27.5,138.04,31.00,24.66,36.43,0.04,-272.75,-272.75,-49,589,-932,25.3,2.2,-26.3,25.3,2.3,-26.0,5.73,2.37,-26.9,30.4
2013-03-14 01:44:00,2.0,1.8525,0.0008,394.15,0.37,38.9,29.0,138.04,31.01,24.66,36.42,0.04,-272.75,-272.75,-49,590,-932,25.3,2.2,-26.3,25.3,2.3,-26.0,5.73,2.36,-26.9,30.4
2013-03-14 01:45:00,2.0,1.8528,0.0008,394.31,0.42,41.1,30.7,138.04,31.01,24.66,36.42,0.04,-272.75,-272.75,-50,591,-933,25.3,2.2,-26.3,25.3,2.3,-26.0,5.73,2.28,-27.0,30.4
2013-03-14 01:46:00,2.0,1.8530,0.0008,394.34,0.39,30.1,24.7,138.04,31.02,24.65,36.42,0.04,-272.75,-272.75,-50,591,-933,25.3,2.2,-26.2,25.3,2.3,-25.9,5.73,2.36,-27.0,30.4
2013-03-14 01:47:00,2.0,1.8532,0.0008,394.33,0.44,36.9,26.3,138.04,31.03,24.66,36.42,0.04,-272.75,-272.75,-49,592,-933,25.2,2.2,-26.2,25.3,2.3,-25.9,5.73,2.39,-27.2,30.4
2013-03-14 01:48:00,2.0,1.8528,0.0009,394.29,0.39,30.9,25.8,138.04,31.03,24.66,36.42,0.04,-272.75,-272.75,-49,592,-932,25.3,2.3,-26.0,25.3,2.3,-25.7,5.73,2.29,-27.2,30.4
2013-03-14 01:49:00,2.0,1.8529,0.0010,394.36,0.37,27.3,22.7,138.04,31.04,24.66,36.41,0.04,-272.75,-272.75,-49,592,-932,25.2,2.3,-26.0,25.3,2.4,-25.6,5.73,2.32,-27.3,30.4
2013-03-14 01:50:00,0.0,1.8928,0.0279,400.43,4.19,23.2,22.6,138.04,31.05,24.66,36.42,0.04,-272.75,-272.75,-50,564,-932,25.2,2.3,-25.9,25.3,2.4,-25.5,5.73,2.37,-27.4,30.3
2013-03-14 01:51:00,0.0,1.9248,0.0009,405.26,0.45,27.9,25.3,138.04,31.05,24.66,36.41,0.04,-272.75,-272.75,-50,564,-933,25.3,2.3,-25.8,25.3,2.4,-25.4,5.73,2.34,-27.4,30.4
2013-03-14 01:52:00,0.0,1.9245,0.0008,405.25,0.39,23.1,26.0,138.04,31.06,24.66,36.41,0.04,-272.75,-272.75,-49,565,-933,25.3,2.4,-25.7,25.3,2.4,-25.3,5.73,2.29,-27.5,30.4
2013-03-14 01:53:00,0.0,1.9248,0.0010,405.26,0.39,20.2,24.9,138.04,31.07,24.66,36.41,0.04,-272.75,-272.75,-50,565,-933,25.3,2.4,-25.6,25.3,2.5,-25.2,5.73,2.37,-27.5,30.4
2013-03-14 01:54:00,0.0,1.9248,0.0009,405.17,0.37,20.5,20.6,138.04,31.07,24.66,36.41,0.04,-272.75,-272.75,-50,565,-933,25.3,2.4,-25.5,25.3,2.5,-25.1,5.73,2.39,-27.6,30.4
2013-03-14 01:55:00,0.0,1.9249,0.0009,405.18,0.43,17.5,20.3,138.04,31.08,24.66,36.41,0.04,-272.76,-272.75,-50,565,-933,25.2,2.4,-25.4,25.3,2.5,-25.1,5.73,2.31,-27.7,30.4
2013-03-14 01:56:00,0.0,1.9252,0.0008,405.33,0.44,12.7,15.1,138.04,31.08,24.65,36.41,0.04,-272.75,-272.75,-50,565,-933,25.3,2.4,-25.5,25.3,2.5,-25.1,5.73,2.31,-27.7,30.4
2013-03-14 01:57:00,0.0,1.9250,0.0010,405.25,0.36,6.7,13.1,138.04,31.09,24.66,36.42,0.04,-272.75,-272.75,-50,565,-932,25.3,2.4,-25.6,25.3,2.5,-25.2,5.73,2.40,-27.8,30.4
2013-03-14 01:58:00,0.0,1.9253,0.0008,405.28,0.37,15.0,19.1,138.03,31.09,24.65,36.41,0.04,-272.75,-272.75,-50,565,-932,25.2,2.3,-25.7,25.3,2.4,-25.3,5.73,2.36,-27.8,30.4
2013-03-14 01:59:00,0.0,1.9250,0.0008,405.28,0.41,18.6,22.6,138.03,31.10,24.66,36.41,0.04,-272.75,-272.75,-50,565,-933,25.2,2.3,-25.8,25.3,2.4,-25.4,5.73,2.29,-27.9,30.4
2013-03-14 02:00:00,0.0,1.9253,0.0009,405.17,0.46,12.2,17.7,138.04,31.10,24.66,36.41,0.04,-272.75,-272.75,-50,565,-933,25.2,2.3,-26.0,25.3,2.4,-25.7,5.73,2.34,-27.9,30.4
2013-03-14 02:01:00,0.0,1.9255,0.0009,405.21,0.42,10.4,18.3,138.03,31.11,24.65,36.42,0.04,-272.75,-272.75,-49,565,-933,25.2,2.2,-26.2,25.3,2.3,-25.8,5.73,2.40,-28.0,30.4
2013-03-14 02:02:00,0.0,1.9252,0.0008,405.24,0.44,6.9,14.5,138.03,31.11,24.66,36.41,0.04,-272.75,-272.75,-49,565,-933,25.2,2.2,-26.3,25.2,2.3,-25.9,5.73,2.34,-28.0,30.4
2013-03-14 02:03:00,0.0,1.9250,0.0010,405.22,0.39,7.9,18.3,138.04,31.11,24.66,36.41,0.04,-272.75,-272.75,-50,565,-932,25.1,2.2,-26.4,25.2,2.3,-25.9,5.73,2.29,-28.1,30.4
2013-03-14 02:04:00,0.0,1.9251,0.0009,405.13,0.41,9.5,15.4,138.04,31.12,24.66,36.41,0.04,-272.75,-272.75,-50,565,-932,25.1,2.2,-26.4,25.2,2.3,-26.1,5.73,2.36,-28.0,30.4
2013-03-14 02:05:00,0.0,1.9251,0.0009,405.14,0.47,7.8,13.5,138.03,31.12,24.66,36.41,0.04,-272.75,-272.75,-49,565,-932,25.1,2.2,-26.5,25.2,2.3,-26.1,5.73,2.40,-28.1,30.4
2013-03-14 02:06:00,0.0,1.9252,0.0009,405.25,0.51,7.5,17.1,138.03,31.13,24.66,36.41,0.04,-272.75,-272.75,-49,565,-932,25.1,2.2,-26.6,25.2,2.3,-26.1,5.73,2.32,-28.1,30.4
2013-03-14 02:07:00,0.0,1.9253,0.0010,405.19,0.40,8.1,15.8,138.03,31.13,24.66,36.41,0.04,-272.75,-272.75,-49,565,-932,25.1,2.2,-26.5,25.2,2.3,-26.1,5.73,2.29,-28.1,30.4
2013-03-14 02:08:00,0.0,1.9255,0.0008,405.29,0.37,15.4,22.9,138.03,31.14,24.65,36.41,0.04,-272.75,-272.76,-50,565,-932,25.1,2.2,-26.5,25.2,2.3,-26.1,5.73,2.39,-28.1,30.4
2013-03-14 02:09:00,0.0,1.9253,0.0009,405.15,0.38,6.4,12.9,138.03,31.14,24.65,36.41,0.04,-272.76,-272.75,-50,565,-932,25.0,2.2,-26.5,25.1,2.3,-26.1,5.73,2.39,-28.1,30.4
2013-03-14 02:10:00,0.0,1.9253,0.0009,405.25,0.40,8.3,14.6,138.03,31.14,24.66,36.41,0.04,-272.75,-272.75,-49,565,-932,25.0,2.2,-26.4,25.1,2.3,-26.1,5.73,2.30,-28.1,30.4
2013-03-14 02:11:00,0.0,1.9251,0.0011,405.25,0.44,9.0,16.7,138.03,31.15,24.66,36.41,0.04,-272.75,-272.75,-49,565,-932,25.0,2.2,-26.5,25.1,2.3,-26.0,5.73,2.31,-28.1,30.3
2013-03-14 02:12:00,0.0,1.9253,0.0010,405.21,0.38,10.9,17.9,138.03,31.15,24.66,36.41,0.04,-272.75,-272.75,-49,565,-932,25.0,2.3,-26.3,25.1,2.3,-26.0,5.73,2.40,-28.1,30.3
2013-03-14 02:13:00,0.0,1.9251,0.0010,405.15,0.36,8.8,14.6,138.03,31.16,24.66,36.41,0.04,-272.75,-272.75,-49,565,-932,25.0,2.2,-26.4,25.0,2.3,-25.9,5.73,2.37,-28.1,30.3
2013-03-14 02:14:00,0.0,1.9250,0.0009,405.18,0.36,9.5,16.6,138.04,31.17,24.66,36.42,0.04,-272.75,-272.75,-49,565,-932,25.0,2.3,-26.1,25.1,2.3,-25.8,5.73,2.29,-28.1,30.3
2013-03-14 02:15:00,0.0,1.9248,0.0010,405.21,0.31,11.1,17.7,138.03,31.17,24.66,36.41,0.04,-272.75,-272.75,-49,565,-933,25.0,2.3,-26.1,25.0,2.4,-25.7,5.73,2.33,-28.1,30.3
2013-03-14 02:16:00,0.0,1.9246,0.0012,405.13,0.34,10.3,16.8,138.04,31.17,24.66,36.41,0.04,-272.75,-272.75,-49,565,-933,25.0,2.3,-26.1,25.0,2.4,-25.7,5.73,2.40,-28.0,30.3
2013-03-14 02:17:00,0.0,1.9248,0.0010,405.26,0.33,6.5,15.7,138.04,31.18,24.66,36.40,0.04,-272.75,-272.75,-49,564,-933,25.0,2.3,-25.9,25.1,2.4,-25.5,5.73,2.35,-28.0,30.3
2013-03-14 02:18:00,0.0,1.9253,0.0010,405.22,0.43,8.1,14.5,138.03,31.18,24.65,36.41,0.04,-272.76,-272.75,-49,565,-933,24.9,2.3,-25.9,25.0,2.4,-25.5,5.73,2.29,-28.0,30.3